Prague, Czech Republic

12:07 PM CET on February 12, 2016 (GMT +0100)
Ruzyne

Weather History for LKPR - January, 2013

Change the Weather History Date:

Monday, January 7, 2013

  Actual Average Record
Temperature  
Mean Temperature 40 °F -  
Max Temperature 44 °F 34 °F 51 °F (1999)
Min Temperature 37 °F 22 °F 12 °F (1997)
Degree Days  
Heating Degree Days 24    
Moisture  
Dew Point 37 °F    
Average Humidity 93    
Maximum Humidity 100    
Minimum Humidity 81    
Precipitation  
Precipitation 0.02 in 0.03 in - ()
Sea Level Pressure  
Sea Level Pressure 30.27 in    
Wind  
Wind Speed 6 mph ()    
Max Wind Speed 14 mph    
Max Gust Speed -    
Visibility 5.2 miles    
Events Rain    
Averages and records for this station are not official NWS values.
T = Trace of Precipitation, MM = Missing Value Source: Averaged Metar Reports

Daily Weather History Graph

Daily Weather History Graph

Search for Another Location

Airport or City:

Trip Planner

Search our weather history database for the weather conditions in past years. The results will help you decide how hot, cold, wet, or windy it might be!

Date:

Astronomy

Jan. 07, 2013 Rise Set
Actual Time 8:00 AM CET 4:18 PM CET
Civil Twilight 7:22 AM CET 4:56 PM CET
Nautical Twilight 6:41 AM CET 5:37 PM CET
Astronomical Twilight 6:02 AM CET 6:16 PM CET
Moon 2:55 AM CET (1/7) 12:22 PM CET (1/7)
Length of Visible Light 9h 33m
Length of Day
8h 17m
Waning Crescent, 25% of the Moon is Illuminated
Jan 7
Waning Crescent
Jan 11
New
Jan 19
First Quarter
Jan 27
Full
Feb 3
Last Quarter

Hourly Weather History & Observations

Time (CET) Temp. Windchill Dew Point Humidity Pressure Visibility Wind Dir Wind Speed Gust Speed Precip Events Conditions
12:00 AM 44.6 °F 39.2 °F 41.0 °F 87% 30.15 in 6.2 mi WNW 10.4 mph - N/A   Mostly Cloudy
12:30 AM 44.6 °F 38.8 °F 41.0 °F 87% 30.15 in 6.2 mi WNW 11.5 mph - N/A   Overcast
1:00 AM 44.6 °F 39.2 °F 41.0 °F 87% 30.15 in 6.2 mi WNW 10.4 mph - N/A   Overcast
1:30 AM 44.6 °F 38.4 °F 39.2 °F 81% 30.18 in 6.2 mi WNW 12.7 mph - N/A   Overcast
2:00 AM 44.6 °F 38.1 °F 39.2 °F 81% 30.18 in 6.2 mi NW 13.8 mph - N/A   Light Drizzle
2:30 AM 42.8 °F 35.8 °F 39.2 °F 87% 30.18 in 6.2 mi NW 13.8 mph - N/A   Overcast
3:00 AM 42.8 °F 37.5 °F 39.2 °F 87% 30.18 in 6.2 mi WNW 9.2 mph - N/A   Overcast
3:30 AM 42.8 °F 37.5 °F 39.2 °F 87% 30.18 in 6.2 mi NW 9.2 mph - N/A   Overcast
4:00 AM 42.8 °F 37.0 °F 39.2 °F 87% 30.18 in 6.2 mi WNW 10.4 mph - N/A Rain Light Rain
4:16 AM 42.8 °F 38.0 °F 39.2 °F 87% 30.18 in 6.2 mi NW 8.1 mph - N/A Rain Light Rain
4:30 AM 42.8 °F 39.3 °F 39.2 °F 87% 30.21 in 6.2 mi North 5.8 mph - N/A Rain Light Rain
4:47 AM 41.0 °F 37.1 °F 39.2 °F 93% 30.21 in 3.7 mi NNE 5.8 mph - N/A Rain Light Rain
5:00 AM 41.0 °F 36.4 °F 39.2 °F 93% 30.21 in 3.7 mi North 6.9 mph - N/A Rain Light Rain
5:30 AM 39.2 °F 35.0 °F 39.2 °F 100% 30.21 in 3.7 mi NNE 5.8 mph - N/A Rain Light Rain
6:00 AM 39.2 °F 35.9 °F 39.2 °F 100% 30.21 in 4.3 mi North 4.6 mph - N/A Rain Light Rain
6:30 AM 39.2 °F 35.9 °F 39.2 °F 100% 30.24 in 5.0 mi NNW 4.6 mph - N/A Rain Light Rain
7:00 AM 39 °F - 39 °F 98% 30.29 in 5 mi North 4.5 mph - - Rain Light Rain
7:00 AM 39.2 °F 35.9 °F 39.2 °F 100% 30.24 in 5.0 mi NW 4.6 mph - N/A Rain Light Rain
7:30 AM 39.2 °F 35.9 °F 39.2 °F 100% 30.24 in 6.2 mi NNW 4.6 mph - N/A   Overcast
8:00 AM 39.2 °F 37.0 °F 39.2 °F 100% 30.24 in 6.2 mi North 3.5 mph - N/A   Mostly Cloudy
8:14 AM 39.2 °F 37.0 °F 39.2 °F 100% 30.27 in 6.2 mi North 3.5 mph - N/A Rain Light Rain
8:21 AM 39.2 °F 35.9 °F 39.2 °F 100% 30.27 in 3.1 mi North 4.6 mph - N/A   Light Drizzle
8:30 AM 39.2 °F 35.9 °F 39.2 °F 100% 30.27 in 6.2 mi North 4.6 mph - N/A   Light Drizzle
9:00 AM 39.2 °F 35.0 °F 37.4 °F 93% 30.27 in 6.2 mi NNE 5.8 mph - N/A   Mostly Cloudy
9:30 AM 39.2 °F 37.0 °F 37.4 °F 93% 30.27 in 6.2 mi North 3.5 mph - N/A   Mostly Cloudy
9:38 AM 39.2 °F 37.0 °F 37.4 °F 93% 30.27 in 3.1 mi North 3.5 mph - N/A   Light Drizzle
9:44 AM 39.2 °F 37.0 °F 37.4 °F 93% 30.27 in 3.1 mi North 3.5 mph - N/A   Light Drizzle
10:00 AM 39.2 °F 35.0 °F 37.4 °F 93% 30.30 in 3.1 mi NE 5.8 mph - N/A   Light Drizzle
10:30 AM 37.4 °F 33.8 °F 37.4 °F 100% 30.30 in 3.1 mi NE 4.6 mph - N/A Rain Light Rain
10:45 AM 37.4 °F 32.8 °F 37.4 °F 100% 30.30 in 6.2 mi NE 5.8 mph - N/A Rain Light Rain
10:52 AM 37.4 °F 32.8 °F 37.4 °F 100% 30.30 in 6.2 mi NE 5.8 mph - N/A Rain Light Rain
11:00 AM 37.4 °F 33.8 °F 37.4 °F 100% 30.30 in 6.2 mi NE 4.6 mph - N/A Rain Light Rain
11:28 AM 37.4 °F 33.8 °F 35.6 °F 93% 30.30 in 2.8 mi NNE 4.6 mph - N/A Rain Light Rain
11:31 AM 37.4 °F 33.8 °F 35.6 °F 93% 30.30 in 2.8 mi NNE 4.6 mph - N/A Rain Light Rain
11:42 AM 37.4 °F 34.9 °F 35.6 °F 93% 30.30 in 3.7 mi North 3.5 mph - N/A Rain Light Rain
12:00 PM 37.4 °F 34.9 °F 35.6 °F 93% 30.30 in 6.2 mi North 3.5 mph - N/A   Mostly Cloudy
12:30 PM 39.2 °F 35.9 °F 35.6 °F 87% 30.30 in 6.2 mi WNW 4.6 mph - N/A   Mostly Cloudy
12:49 PM 39.2 °F 37.0 °F 35.6 °F 87% 30.30 in 6.2 mi North 3.5 mph - N/A Rain Light Rain
1:00 PM 38 °F - 36 °F 90% 30.35 in 9 mi North 4.5 mph - - Rain Light Rain
1:00 PM 39.2 °F 37.0 °F 35.6 °F 87% 30.30 in 6.2 mi North 3.5 mph - N/A Rain Light Rain
1:10 PM 39.2 °F 35.0 °F 35.6 °F 87% 30.30 in 6.2 mi North 5.8 mph - N/A Rain Light Rain
1:30 PM 39.2 °F 35.0 °F 35.6 °F 87% 30.30 in 6.2 mi North 5.8 mph - N/A Rain Light Rain
2:00 PM 39.2 °F 35.0 °F 37.4 °F 93% 30.30 in 6.2 mi North 5.8 mph - N/A   Mostly Cloudy
2:30 PM 39.2 °F 37.0 °F 35.6 °F 87% 30.30 in 6.2 mi NNE 3.5 mph - N/A   Mostly Cloudy
3:00 PM 39.2 °F 37.0 °F 35.6 °F 87% 30.30 in 6.2 mi NNE 3.5 mph - N/A Rain Light Rain
3:20 PM 39.2 °F 37.0 °F 37.4 °F 93% 30.30 in 6.2 mi East 3.5 mph - N/A Rain Light Rain
3:30 PM 39.2 °F 35.0 °F 35.6 °F 87% 30.30 in 6.2 mi East 5.8 mph - N/A Rain Light Rain
3:42 PM 39.2 °F 35.9 °F 35.6 °F 87% 30.30 in 6.2 mi ESE 4.6 mph - N/A   Mostly Cloudy
4:00 PM 39.2 °F 35.0 °F 35.6 °F 87% 30.30 in 6.2 mi East 5.8 mph - N/A Rain Light Rain
4:15 PM 37.4 °F 34.9 °F 35.6 °F 93% 30.30 in 5.0 mi East 3.5 mph - N/A Rain Light Rain
4:30 PM 37.4 °F 34.9 °F 35.6 °F 93% 30.30 in 5.0 mi East 3.5 mph - N/A Rain Light Rain
5:00 PM 37.4 °F 34.9 °F 35.6 °F 93% 30.30 in 5.6 mi ENE 3.5 mph - N/A Rain Light Rain
5:30 PM 37.4 °F 34.9 °F 35.6 °F 93% 30.30 in 5.6 mi East 3.5 mph - N/A Rain Light Rain
6:00 PM 37.4 °F 34.9 °F 35.6 °F 93% 30.30 in 5.6 mi SE 3.5 mph - N/A   Overcast
6:30 PM 37.4 °F 33.8 °F 37.4 °F 100% 30.30 in 6.2 mi ESE 4.6 mph - N/A   Overcast
7:00 PM 37.4 °F 34.9 °F 37.4 °F 100% 30.30 in 5.0 mi ESE 3.5 mph - N/A   Mostly Cloudy
7:30 PM 37.4 °F 34.9 °F 37.4 °F 100% 30.30 in 5.0 mi South 3.5 mph - N/A   Overcast
7:47 PM 37.4 °F - 35.6 °F 93% 30.33 in 4.3 mi Variable 2.3 mph - N/A   Overcast
8:00 PM 37.4 °F 34.9 °F 35.6 °F 93% 30.33 in 4.3 mi South 3.5 mph - N/A   Overcast
8:30 PM 37.4 °F 34.9 °F 35.6 °F 93% 30.30 in 5.0 mi South 3.5 mph - N/A   Overcast
9:00 PM 37.4 °F 34.9 °F 35.6 °F 93% 30.30 in 5.0 mi SE 3.5 mph - N/A   Overcast
9:30 PM 37.4 °F 32.8 °F 35.6 °F 93% 30.30 in 3.1 mi East 5.8 mph - N/A   Overcast
10:00 PM 37.4 °F 33.8 °F 35.6 °F 93% 30.30 in 2.8 mi ESE 4.6 mph - N/A   Overcast
10:20 PM 37.4 °F - 35.6 °F 93% 30.30 in 2.8 mi Variable 2.3 mph - N/A   Overcast
10:30 PM 37.4 °F 34.9 °F 37.4 °F 100% 30.30 in 3.7 mi SSE 3.5 mph - N/A   Overcast
11:00 PM 37.4 °F 34.9 °F 35.6 °F 93% 30.30 in 3.7 mi ESE 3.5 mph - N/A   Light Drizzle
11:30 PM 37.4 °F 34.9 °F 37.4 °F 100% 30.30 in 4.3 mi SE 3.5 mph - N/A   Overcast